Tracking 29495 objects as of 7-Sep-2024
HD Live streaming from Space Station
objects crossing your sky now

STARLINK-5427

Track STARLINK-5427 now!
10-day predictions
STARLINK-5427 is classified as:


NORAD ID: 54853
Int'l Code: 2022-177AK
Perigee: 565.0 km
Apogee: 567.4 km
Inclination: 43.0 °
Period: 95.8 minutes
Semi major axis: 6937 km
RCS: Unknown
Launch date: December 28, 2022
Source: United States (US)
Launch site: AIR FORCE EASTERN TEST RANGE (AFETR)
Your satellite tracking list
Your tracking list is empty




NASA's NSSDC Master Catalog

Two Line Element Set (TLE):
1 54853U 22177AK  24251.18778037  .00001686  00000-0  13988-3 0  9992
2 54853  43.0024 220.9667 0001746 271.2720  88.7923 15.02535948 93619
Source of the keplerian elements: AFSPC